Time,TemperatureF,DewpointF,PressureIn,WindDirection,WindDirectionDegrees,WindSpeedMPH,WindSpeedGustMPH,Humidity,HourlyPrecipIn,Conditions,Clouds,dailyrainin,SoftwareType,DateUTC
2013-09-02 00:14:00,67.0,66.0,29.74,SW,233,0.0,-999.0,95,-99.99,,,-99.99,,2013-09-02 04:14:00,
2013-09-02 00:44:00,67.0,66.0,29.73,SW,233,0.0,-999.0,96,-99.99,,,-99.99,,2013-09-02 04:44:00,
2013-09-02 00:54:00,67.0,66.0,29.75,SW,233,0.0,-999.0,96,-99.99,,,-99.99,,2013-09-02 04:54:00,
2013-09-02 01:13:00,67.0,66.0,29.73,SW,233,0.0,-999.0,97,-99.99,,,-99.99,,2013-09-02 05:13:00,
2013-09-02 01:23:00,67.0,66.0,29.76,SW,233,0.0,-999.0,97,-99.99,,,-99.99,,2013-09-02 05:23:00,
2013-09-02 01:44:00,67.0,66.0,29.74,SW,233,0.0,-999.0,97,-99.99,,,-99.99,,2013-09-02 05:44:00,
2013-09-02 01:52:00,67.0,66.0,29.75,West,262,0.0,-999.0,97,-99.99,,,-99.99,,2013-09-02 05:52:00,
2013-09-02 02:12:00,67.0,66.0,29.72,South,182,0.0,-999.0,97,-99.99,,,-99.99,,2013-09-02 06:12:00,
2013-09-02 02:22:00,67.0,66.0,29.75,South,182,0.0,-999.0,97,-99.99,,,-99.99,,2013-09-02 06:22:00,
2013-09-02 02:43:00,66.0,65.0,29.72,South,182,0.0,-999.0,97,-99.99,,,-99.99,,2013-09-02 06:43:00,
2013-09-02 02:52:00,67.0,66.0,29.75,South,182,0.0,-999.0,98,-99.99,,,-99.99,,2013-09-02 06:52:00,
2013-09-02 03:11:00,66.0,65.0,29.72,South,182,0.0,-999.0,98,-99.99,,,-99.99,,2013-09-02 07:11:00,
2013-09-02 03:22:00,66.0,65.0,29.71,South,182,0.0,-999.0,98,-99.99,,,-99.99,,2013-09-02 07:22:00,
2013-09-02 03:33:00,66.0,65.0,29.71,South,182,0.0,-999.0,98,-99.99,,,-99.99,,2013-09-02 07:33:00,
2013-09-02 03:42:00,66.0,65.0,29.71,South,182,0.0,-999.0,98,-99.99,,,-99.99,,2013-09-02 07:42:00,
2013-09-02 03:52:00,66.0,65.0,29.72,South,182,0.0,-999.0,98,-99.99,,,-99.99,,2013-09-02 07:52:00,
2013-09-02 04:11:00,66.0,65.0,29.70,South,182,0.0,-999.0,98,-99.99,,,-99.99,,2013-09-02 08:11:00,
2013-09-02 04:22:00,67.0,66.0,29.72,South,182,0.0,-999.0,98,-99.99,,,-99.99,,2013-09-02 08:22:00,
2013-09-02 04:42:00,66.0,65.0,29.70,South,182,0.0,-999.0,98,-99.99,,,-99.99,,2013-09-02 08:42:00,
2013-09-02 04:52:00,66.0,65.0,29.71,South,182,0.0,-999.0,98,-99.99,,,-99.99,,2013-09-02 08:52:00,
2013-09-02 05:12:00,66.0,66.0,29.68,South,182,0.0,-999.0,99,-99.99,,,-99.99,,2013-09-02 09:12:00,
2013-09-02 05:22:00,67.0,67.0,29.71,South,182,0.0,-999.0,99,-99.99,,,-99.99,,2013-09-02 09:22:00,
2013-09-02 05:43:00,66.0,66.0,29.69,South,182,0.0,-999.0,99,-99.99,,,-99.99,,2013-09-02 09:43:00,
2013-09-02 05:53:00,66.0,66.0,29.72,South,182,0.0,-999.0,99,-99.99,,,-99.99,,2013-09-02 09:53:00,
2013-09-02 06:13:00,66.0,66.0,29.70,South,182,0.0,-999.0,99,-99.99,,,-99.99,,2013-09-02 10:13:00,
2013-09-02 06:23:00,66.0,66.0,29.69,South,182,0.0,-999.0,99,-99.99,,,-99.99,,2013-09-02 10:23:00,
2013-09-02 06:33:00,66.0,66.0,29.69,South,182,0.0,-999.0,99,-99.99,,,-99.99,,2013-09-02 10:33:00,
2013-09-02 06:42:00,66.0,66.0,29.69,South,182,0.0,-999.0,99,-99.99,,,-99.99,,2013-09-02 10:42:00,
2013-09-02 06:53:00,67.0,67.0,29.72,South,182,0.0,-999.0,99,-99.99,,,-99.99,,2013-09-02 10:53:00,
2013-09-02 07:12:00,66.0,66.0,29.70,South,182,0.0,-999.0,99,-99.99,,,-99.99,,2013-09-02 11:12:00,
2013-09-02 07:22:00,67.0,67.0,29.72,South,182,0.0,-999.0,99,-99.99,,,-99.99,,2013-09-02 11:22:00,
2013-09-02 07:42:00,66.0,66.0,29.69,South,182,0.0,-999.0,99,-99.99,,,-99.99,,2013-09-02 11:42:00,
2013-09-02 07:52:00,67.0,67.0,29.70,South,181,0.0,-999.0,99,-99.99,,,-99.99,,2013-09-02 11:52:00,
2013-09-02 08:12:00,66.0,66.0,29.67,South,181,0.0,-999.0,99,-99.99,,,-99.99,,2013-09-02 12:12:00,
2013-09-02 08:21:00,68.0,68.0,29.69,SE,145,0.0,-999.0,99,-99.99,,,-99.99,,2013-09-02 12:21:00,
2013-09-02 08:43:00,67.0,67.0,29.68,ENE,58,1.0,-999.0,99,-99.99,,,-99.99,,2013-09-02 12:43:00,
2013-09-02 08:52:00,68.0,68.0,29.72,ENE,58,0.0,-999.0,99,-99.99,,,-99.99,,2013-09-02 12:52:00,
2013-09-02 09:11:00,68.0,68.0,29.69,ENE,58,0.0,-999.0,99,-99.99,,,-99.99,,2013-09-02 13:11:00,
2013-09-02 09:22:00,69.0,69.0,29.70,ENE,58,0.0,-999.0,99,-99.99,,,-99.99,,2013-09-02 13:22:00,
2013-09-02 09:32:00,69.0,69.0,29.70,ENE,58,0.0,-999.0,99,-99.99,,,-99.99,,2013-09-02 13:32:00,
2013-09-02 09:42:00,69.0,69.0,29.70,ENE,58,0.0,-999.0,99,-99.99,,,-99.99,,2013-09-02 13:42:00,
2013-09-02 09:52:00,70.0,69.0,29.71,ENE,58,0.0,-999.0,98,-99.99,,,-99.99,,2013-09-02 13:52:00,
2013-09-02 10:11:00,70.0,69.0,29.68,ENE,58,0.0,-999.0,97,-99.99,,,-99.99,,2013-09-02 14:11:00,
2013-09-02 10:22:00,71.0,69.0,29.70,West,270,0.0,-999.0,93,-99.99,,,-99.99,,2013-09-02 14:22:00,
2013-09-02 10:43:00,71.0,69.0,29.68,WNW,301,0.0,-999.0,93,-99.99,,,-99.99,,2013-09-02 14:43:00,
2013-09-02 10:52:00,72.0,70.0,29.70,NNW,331,1.0,-999.0,92,-99.99,,,-99.99,,2013-09-02 14:52:00,
2013-09-02 11:12:00,72.0,69.0,29.67,NNE,24,0.0,-999.0,91,-99.99,,,-99.99,,2013-09-02 15:12:00,
2013-09-02 11:23:00,73.0,70.0,29.70,NNE,22,0.0,-999.0,89,-99.99,,,-99.99,,2013-09-02 15:23:00,
2013-09-02 11:55:00,73.0,70.0,29.70,NNE,21,0.0,-999.0,90,-99.99,,,-99.99,,2013-09-02 15:55:00,
2013-09-02 12:14:00,73.0,70.0,29.66,NNE,21,0.0,-999.0,89,-99.99,,,-99.99,,2013-09-02 16:14:00,
2013-09-02 12:24:00,74.0,70.0,29.68,WNW,299,0.0,-999.0,87,-99.99,,,-99.99,,2013-09-02 16:24:00,
2013-09-02 12:42:00,74.0,70.0,29.65,WNW,299,0.0,-999.0,86,-99.99,,,-99.99,,2013-09-02 16:42:00,
2013-09-02 12:53:00,74.0,70.0,29.68,East,93,0.0,-999.0,87,-99.99,,,-99.99,,2013-09-02 16:53:00,
2013-09-02 13:13:00,73.0,69.0,29.66,East,93,0.0,-999.0,87,-99.99,,,-99.99,,2013-09-02 17:13:00,
2013-09-02 13:23:00,73.0,69.0,29.68,ENE,68,0.0,-999.0,88,-99.99,,,-99.99,,2013-09-02 17:23:00,
2013-09-02 13:45:00,73.0,69.0,29.65,ENE,68,0.0,-999.0,87,-99.99,,,-99.99,,2013-09-02 17:45:00,
2013-09-02 13:52:00,74.0,70.0,29.67,ENE,68,0.0,-999.0,86,-99.99,,,-99.99,,2013-09-02 17:52:00,
2013-09-02 14:13:00,73.0,69.0,29.64,ENE,68,0.0,-999.0,88,-99.99,,,-99.99,,2013-09-02 18:13:00,
2013-09-02 14:22:00,74.0,71.0,29.66,North,355,0.0,-999.0,91,-99.99,,,-99.99,,2013-09-02 18:22:00,
2013-09-02 14:52:00,73.0,69.0,29.63,North,355,0.0,-999.0,87,-99.99,,,-99.99,,2013-09-02 18:52:00,
2013-09-02 15:02:00,73.0,69.0,29.63,North,355,0.0,-999.0,87,-99.99,,,-99.99,,2013-09-02 19:02:00,
2013-09-02 15:12:00,73.0,69.0,29.63,North,355,0.0,-999.0,87,-99.99,,,-99.99,,2013-09-02 19:12:00,
2013-09-02 15:22:00,75.0,71.0,29.65,NNW,337,0.0,-999.0,86,-99.99,,,-99.99,,2013-09-02 19:22:00,
2013-09-02 15:52:00,76.0,71.0,29.64,NE,40,0.0,-999.0,85,-99.99,,,-99.99,,2013-09-02 19:52:00,
2013-09-02 16:12:00,75.0,71.0,29.62,NNE,31,0.0,-999.0,86,-99.99,,,-99.99,,2013-09-02 20:12:00,
2013-09-02 16:22:00,76.0,70.0,29.63,ESE,104,0.0,-999.0,83,-99.99,,,-99.99,,2013-09-02 20:22:00,
2013-09-02 16:52:00,77.0,70.0,29.62,ESE,116,1.0,-999.0,80,-99.99,,,-99.99,,2013-09-02 20:52:00,
2013-09-02 17:12:00,77.0,70.0,29.60,North,8,0.0,-999.0,79,-99.99,,,-99.99,,2013-09-02 21:12:00,
2013-09-02 17:23:00,78.0,71.0,29.62,NW,322,0.0,-999.0,80,-99.99,,,-99.99,,2013-09-02 21:23:00,
2013-09-02 17:55:00,77.0,70.0,29.61,SSE,149,0.0,-999.0,80,-99.99,,,-99.99,,2013-09-02 21:55:00,
2013-09-02 18:13:00,76.0,69.0,29.58,SSE,159,0.0,-999.0,80,-99.99,,,-99.99,,2013-09-02 22:13:00,
2013-09-02 18:24:00,76.0,70.0,29.61,NNW,347,0.0,-999.0,82,-99.99,,,-99.99,,2013-09-02 22:24:00,
2013-09-02 18:44:00,75.0,69.0,29.58,NNW,347,0.0,-999.0,82,-99.99,,,-99.99,,2013-09-02 22:44:00,
2013-09-02 18:54:00,75.0,70.0,29.60,NE,40,0.0,-999.0,84,-99.99,,,-99.99,,2013-09-02 22:54:00,
2013-09-02 19:12:00,74.0,69.0,29.58,NNE,12,0.0,-999.0,84,-99.99,,,-99.99,,2013-09-02 23:12:00,
2013-09-02 19:22:00,73.0,69.0,29.61,SE,141,0.0,-999.0,88,-99.99,,,-99.99,,2013-09-02 23:22:00,
2013-09-02 19:53:00,71.0,69.0,29.62,SE,141,0.0,-999.0,92,-99.99,,,-99.99,,2013-09-02 23:53:00,
2013-09-02 20:12:00,70.0,68.0,29.60,SSW,211,0.0,-999.0,92,-99.99,,,-99.99,,2013-09-03 00:12:00,
2013-09-02 20:22:00,70.0,68.0,29.60,SSW,211,0.0,-999.0,93,-99.99,,,-99.99,,2013-09-03 00:22:00,
2013-09-02 20:32:00,70.0,68.0,29.60,SSW,211,0.0,-999.0,93,-99.99,,,-99.99,,2013-09-03 00:32:00,
2013-09-02 20:42:00,70.0,68.0,29.60,SSW,211,0.0,-999.0,93,-99.99,,,-99.99,,2013-09-03 00:42:00,
2013-09-02 20:52:00,70.0,68.0,29.62,NW,316,0.0,-999.0,94,-99.99,,,-99.99,,2013-09-03 00:52:00,
2013-09-02 21:11:00,69.0,67.0,29.60,NW,316,0.0,-999.0,94,-99.99,,,-99.99,,2013-09-03 01:11:00,
2013-09-02 21:22:00,69.0,68.0,29.62,NW,315,0.0,-999.0,96,-99.99,,,-99.99,,2013-09-03 01:22:00,
2013-09-02 21:42:00,68.0,67.0,29.59,NW,316,0.0,-999.0,96,-99.99,,,-99.99,,2013-09-03 01:42:00,
2013-09-02 21:52:00,68.0,67.0,29.63,NW,315,0.0,-999.0,97,-99.99,,,-99.99,,2013-09-03 01:52:00,
2013-09-02 22:12:00,67.0,66.0,29.60,NW,316,0.0,-999.0,97,-99.99,,,-99.99,,2013-09-03 02:12:00,
2013-09-02 22:21:00,68.0,67.0,29.64,NW,315,0.0,-999.0,98,-99.99,,,-99.99,,2013-09-03 02:21:00,
2013-09-02 22:42:00,67.0,66.0,29.60,NW,316,0.0,-999.0,98,-99.99,,,-99.99,,2013-09-03 02:42:00,
2013-09-02 22:52:00,68.0,67.0,29.64,WSW,243,0.0,-999.0,98,-99.99,,,-99.99,,2013-09-03 02:52:00,
2013-09-02 23:11:00,66.0,65.0,29.62,ESE,116,0.0,-999.0,96,-99.99,,,-99.99,,2013-09-03 03:11:00,
2013-09-02 23:23:00,66.0,65.0,29.64,WNW,290,0.0,-999.0,95,-99.99,,,-99.99,,2013-09-03 03:23:00,
2013-09-02 23:45:00,65.0,64.0,29.61,WNW,290,0.0,-999.0,96,-99.99,,,-99.99,,2013-09-03 03:45:00,
2013-09-02 23:55:00,65.0,64.0,29.63,South,179,0.0,-999.0,97,-99.99,,,-99.99,,2013-09-03 03:55:00,